Zurück zum Katalog

ARIANE 1 DEB

AktivSSO
NORAD 39103·DEBRIS·🇫🇷 France

Gestartet Feb 22, 1986 von Guiana Space Centre

Loading…

Nächste Überflüge (nächste 24 Stunden)

TLE

AlterndSource: Space-Track

Epoche: Sep 11, 2026, 04:24 UTC

1 39103U 86019VR  26254.18384468  .00000599  00000-0  18598-3 0  9998
2 39103  98.2090 234.9563 0022767 165.2797 256.3629 14.44255061695082

Verfolge ARIANE 1 DEB in Echtzeit mit AllMySat

Download on the App Store